Weather History for KTAZ - March, 2014

Change the Weather History Date:

Sunday, March 2, 2014

  Actual Average (KSPI) Record (KSPI)
Temperature  
Mean Temperature 12 °F 37 °F  
Max Temperature 19 °F 46 °F 76 °F (1976)
Min Temperature 5 °F 28 °F -2 °F (1980)
Degree Days  
Heating Degree Days 53 28  
Month to date heating degree days 57  
Since 1 July heating degree days 4328  
Cooling Degree Days 0 0  
Month to date cooling degree days 0  
Year to date cooling degree days 0  
Moisture  
Dew Point 6 °F    
Average Humidity 77    
Maximum Humidity 93    
Minimum Humidity 61    
Precipitation  
Precipitation 0.00 in 0.07 in 1.42 in (1940)
Month to date precipitation 0.15  
Year to date precipitation 3.78  
Snow  
Snow 0.00 in 0.10 in 6.30 in (1978)
Month to date snowfall 0.2  
Since 1 July snowfall 18.3  
Snow Depth -    
Sea Level Pressure  
Sea Level Pressure 30.34 in    
Wind  
Wind Speed 17 mph (North)    
Max Wind Speed 22 mph    
Max Gust Speed 26 mph    
Visibility 7 miles    
Events Snow    
T = Trace of Precipitation, MM = Missing Value Source: NWS Daily Summary

Daily Weather History Graph

Daily Weather History Graph

Search for Another Location

Airport or City:

Trip Planner

Search our weather history database for the weather conditions in past years. The results will help you decide how hot, cold, wet, or windy it might be!

Date:

Astronomy

Mar. 02, 2014 Rise Set
Actual Time 6:28 AM CST 5:50 PM CST
Civil Twilight 6:01 AM CST 6:17 PM CST
Nautical Twilight 5:30 AM CST 6:48 PM CST
Astronomical Twilight 4:59 AM CST 7:20 PM CST
Moon 7:00 AM CST (3/2) 7:46 PM CST (3/2)
Length of Visible Light 12h 15m
Length of Day
11h 21m
Waxing Crescent, 3% of the Moon is Illuminated
Mar 2
Waxing Crescent
Mar 8
First Quarter
Mar 16
Full
Mar 23
Last Quarter
Mar 30
New

Hourly Weather History & Observations

Time (CST) Temp. Windchill Dew Point Humidity Pressure Visibility Wind Dir Wind Speed Gust Speed Precip Events Conditions
12:15 AM 19.4 °F 6.0 °F 17.6 °F 93% 30.25 in 4.0 mi North 13.8 mph - N/A   Overcast
12:35 AM 17.6 °F 3.2 °F 15.8 °F 93% 30.26 in 5.0 mi North 15.0 mph 20.7 mph N/A   Overcast
12:55 AM 17.6 °F 3.2 °F 14.0 °F 86% 30.27 in 7.0 mi North 15.0 mph - N/A   Overcast
1:15 AM 17.6 °F 3.2 °F 14.0 °F 86% 30.27 in 10.0 mi North 15.0 mph - N/A   Overcast
1:35 AM 17.6 °F 4.3 °F 14.0 °F 86% 30.27 in 10.0 mi North 12.7 mph - N/A   Overcast
1:55 AM 17.6 °F 3.2 °F 14.0 °F 86% 30.28 in 10.0 mi North 15.0 mph - N/A   Overcast
2:15 AM 17.6 °F 2.7 °F 14.0 °F 86% 30.27 in 5.0 mi North 16.1 mph 20.7 mph N/A   Overcast
2:35 AM 17.6 °F 2.2 °F 14.0 °F 86% 30.29 in 2.0 mi North 17.3 mph - N/A Snow Light Snow
2:55 AM 17.6 °F 3.2 °F 12.2 °F 79% 30.28 in 3.0 mi North 15.0 mph - N/A   Overcast
3:15 AM 15.8 °F -0.6 °F 12.2 °F 86% 30.26 in 4.0 mi North 18.4 mph - N/A   Overcast
3:35 AM 15.8 °F 0.9 °F 12.2 °F 86% 30.27 in 5.0 mi North 15.0 mph - N/A   Overcast
3:55 AM 15.8 °F 0.9 °F 12.2 °F 86% 30.26 in 7.0 mi North 15.0 mph - N/A   Overcast
4:15 AM 14.0 °F -2.5 °F 12.2 °F 93% 30.27 in 10.0 mi North 17.3 mph - N/A   Overcast
4:35 AM 14.0 °F -2.0 °F 10.4 °F 86% 30.30 in 10.0 mi North 16.1 mph 21.9 mph N/A Snow Light Snow
4:55 AM 14.0 °F -3.0 °F 10.4 °F 86% 30.31 in 7.0 mi North 18.4 mph 21.9 mph N/A Snow Light Snow
5:15 AM 14.0 °F -3.0 °F 10.4 °F 86% 30.30 in 4.0 mi North 18.4 mph - N/A Snow Light Snow
5:35 AM 14.0 °F -2.0 °F 10.4 °F 86% 30.30 in 3.0 mi North 16.1 mph - N/A Snow Light Snow
5:55 AM 14.0 °F -1.4 °F 10.4 °F 86% 30.30 in 3.0 mi North 15.0 mph - N/A Snow Light Snow
6:15 AM 12.2 °F -4.8 °F 8.6 °F 85% 30.30 in 10.0 mi North 17.3 mph - N/A   Overcast
6:35 AM 12.2 °F -4.8 °F 8.6 °F 85% 30.30 in 10.0 mi North 17.3 mph 24.2 mph N/A   Overcast
6:55 AM 12.2 °F -4.8 °F 8.6 °F 85% 30.33 in 10.0 mi North 17.3 mph - N/A   Overcast
7:15 AM 12.2 °F -4.3 °F 8.6 °F 85% 30.34 in 10.0 mi North 16.1 mph 21.9 mph N/A   Overcast
7:35 AM 12.2 °F -4.8 °F 8.6 °F 85% 30.34 in 10.0 mi North 17.3 mph 24.2 mph N/A   Overcast
7:55 AM 12.2 °F -5.8 °F 8.6 °F 85% 30.35 in 10.0 mi North 19.6 mph 24.2 mph N/A   Overcast
8:15 AM 14.0 °F -0.2 °F 8.6 °F 79% 30.35 in 10.0 mi North 12.7 mph 19.6 mph N/A   Overcast
8:35 AM 14.0 °F -3.0 °F 8.6 °F 79% 30.36 in 10.0 mi North 18.4 mph - N/A   Overcast
8:55 AM 14.0 °F -2.0 °F 8.6 °F 79% 30.37 in 10.0 mi North 16.1 mph 21.9 mph N/A   Overcast
9:15 AM 14.0 °F -2.0 °F 10.4 °F 86% 30.36 in 10.0 mi North 16.1 mph 19.6 mph N/A   Overcast
9:35 AM 14.0 °F -1.4 °F 10.4 °F 86% 30.38 in 5.0 mi North 15.0 mph - N/A Snow Light Snow
9:55 AM 14.0 °F -2.5 °F 10.4 °F 86% 30.38 in 7.0 mi NNW 17.3 mph 20.7 mph N/A Snow Light Snow
10:15 AM 14.0 °F -3.0 °F 8.6 °F 79% 30.38 in 5.0 mi North 18.4 mph - N/A Snow Light Snow
10:35 AM 14.0 °F -3.0 °F 8.6 °F 79% 30.36 in 10.0 mi North 18.4 mph - N/A   Overcast
10:55 AM 14.0 °F -2.5 °F 8.6 °F 79% 30.38 in 7.0 mi NNW 17.3 mph 21.9 mph N/A Snow Light Snow
11:15 AM 14.0 °F -3.4 °F 8.6 °F 79% 30.38 in 7.0 mi NNW 19.6 mph - N/A Snow Light Snow
11:35 AM 12.2 °F -5.3 °F 8.6 °F 85% 30.37 in 7.0 mi NNW 18.4 mph 25.3 mph N/A Snow Light Snow
11:55 AM 12.2 °F -5.8 °F 6.8 °F 79% 30.37 in 10.0 mi North 19.6 mph 25.3 mph N/A   Overcast
12:15 PM 12.2 °F -6.3 °F 6.8 °F 79% 30.36 in 10.0 mi NNW 20.7 mph - N/A   Overcast
12:35 PM 12.2 °F -5.3 °F 6.8 °F 79% 30.35 in 10.0 mi North 18.4 mph 24.2 mph N/A   Overcast
12:55 PM 12.2 °F -6.3 °F 5.0 °F 73% 30.34 in 10.0 mi North 20.7 mph 24.2 mph N/A   Overcast
1:15 PM 12.2 °F -5.3 °F 6.8 °F 79% 30.34 in 10.0 mi NNW 18.4 mph 24.2 mph N/A   Overcast
1:35 PM 12.2 °F -5.8 °F 5.0 °F 73% 30.34 in 7.0 mi NNW 19.6 mph 24.2 mph N/A Snow Light Snow
1:55 PM 12.2 °F -5.8 °F 5.0 °F 73% 30.35 in 5.0 mi NNW 19.6 mph 24.2 mph N/A Snow Light Snow
2:15 PM 12.2 °F -6.3 °F 5.0 °F 73% 30.35 in 5.0 mi North 20.7 mph - N/A Snow Light Snow
2:35 PM 12.2 °F -5.8 °F 5.0 °F 73% 30.37 in 4.0 mi NNW 19.6 mph 24.2 mph N/A Snow Light Snow
2:55 PM 10.4 °F -8.2 °F 5.0 °F 79% 30.35 in 1.8 mi North 19.6 mph - N/A Snow Light Snow
3:15 PM 10.4 °F -6.6 °F 5.0 °F 79% 30.35 in 0.8 mi NNW 16.1 mph - N/A Snow Light Snow
3:35 PM 10.4 °F -6.6 °F 5.0 °F 79% 30.36 in 0.8 mi NNW 16.1 mph - N/A Snow Light Snow
3:55 PM 10.4 °F -7.2 °F 5.0 °F 79% 30.36 in 0.8 mi NNW 17.3 mph - N/A Snow Light Snow
4:15 PM 8.6 °F -11.0 °F 5.0 °F 85% 30.35 in 0.5 mi NNW 20.7 mph - N/A Snow Snow
4:35 PM 8.6 °F -10.5 °F 5.0 °F 85% 30.35 in 0.5 mi North 19.6 mph 24.2 mph N/A Snow Snow
4:55 PM 8.6 °F -10.0 °F 3.2 °F 79% 30.36 in 0.5 mi NNW 18.4 mph - N/A Snow Snow
5:15 PM 8.6 °F -10.0 °F 3.2 °F 79% 30.35 in 1.0 mi NNW 18.4 mph - N/A Snow Light Snow
5:35 PM 8.6 °F -10.5 °F 1.4 °F 73% 30.36 in 2.0 mi NNW 19.6 mph 25.3 mph N/A Snow Light Snow
5:55 PM 8.6 °F -10.5 °F 1.4 °F 73% 30.38 in 10.0 mi NNW 19.6 mph 25.3 mph N/A   Overcast
6:15 PM 8.6 °F -10.0 °F -0.4 °F 67% 30.40 in 10.0 mi NNW 18.4 mph - N/A   Overcast
6:35 PM 8.6 °F -10.0 °F -0.4 °F 67% 30.40 in 10.0 mi NNW 18.4 mph - N/A   Overcast
6:55 PM 8.6 °F -9.5 °F -0.4 °F 67% 30.39 in 10.0 mi NNW 17.3 mph - N/A   Overcast
7:15 PM 6.8 °F -12.4 °F -0.4 °F 72% 30.37 in 10.0 mi North 18.4 mph 23.0 mph N/A   Mostly Cloudy
7:35 PM 6.8 °F -12.4 °F -2.2 °F 67% 30.39 in 10.0 mi North 18.4 mph - N/A   Clear
7:55 PM 6.8 °F -12.4 °F -4.0 °F 61% 30.39 in 10.0 mi North 18.4 mph - N/A   Clear
8:15 PM 6.8 °F -12.9 °F -2.2 °F 67% 30.40 in 10.0 mi North 19.6 mph - N/A   Clear
8:35 PM 6.8 °F -12.9 °F -4.0 °F 61% 30.41 in 10.0 mi North 19.6 mph 24.2 mph N/A   Clear
8:55 PM 6.8 °F -11.8 °F -4.0 °F 61% 30.40 in 10.0 mi North 17.3 mph - N/A   Clear
9:15 PM 6.8 °F -12.4 °F -4.0 °F 61% 30.38 in 10.0 mi North 18.4 mph 26.5 mph N/A   Clear
9:35 PM 5.0 °F -16.2 °F -5.8 °F 61% 30.38 in 10.0 mi North 21.9 mph - N/A   Clear
9:55 PM 5.0 °F -15.7 °F -5.8 °F 61% 30.37 in 10.0 mi North 20.7 mph 26.5 mph N/A   Clear
10:15 PM 5.0 °F -15.7 °F -5.8 °F 61% 30.38 in 10.0 mi North 20.7 mph - N/A   Clear
10:35 PM 5.0 °F -13.6 °F -5.8 °F 61% 30.40 in 10.0 mi North 16.1 mph - N/A   Clear
10:55 PM 5.0 °F -14.7 °F -5.8 °F 61% 30.40 in 10.0 mi North 18.4 mph 21.9 mph N/A   Clear
11:15 PM 5.0 °F -13.6 °F -5.8 °F 61% 30.40 in 10.0 mi North 16.1 mph - N/A   Clear
11:35 PM 5.0 °F -15.7 °F -5.8 °F 61% 30.40 in 10.0 mi North 20.7 mph 26.5 mph N/A   Clear
11:55 PM 5.0 °F -13.6 °F -5.8 °F 61% 30.40 in 10.0 mi North 16.1 mph 23.0 mph N/A   Clear